Maastricht, Netherlands

2:27 AM CEST on April 24, 2017 (GMT +0200)
Maastricht-Aachen

Weather History for EHBK - January, 2013

Change the Weather History Date:

Sunday, January 20, 2013

  Actual Average Record
Temperature  
Mean Temperature 27 °F -  
Max Temperature 33 °F 41 °F 55 °F (1999)
Min Temperature 21 °F 31 °F 21 °F (2013)
Degree Days  
Heating Degree Days 38    
Moisture  
Dew Point 22 °F    
Average Humidity 87    
Maximum Humidity 93    
Minimum Humidity 70    
Precipitation  
Precipitation 0.12 in 0.07 in - ()
Sea Level Pressure  
Sea Level Pressure 29.33 in    
Wind  
Wind Speed 14 mph ()    
Max Wind Speed 21 mph    
Max Gust Speed -    
Visibility 4.5 miles    
Events Rain , Snow    
Averages and records for this station are not official NWS values.
T = Trace of Precipitation, MM = Missing Value Source: Averaged Metar Reports

Daily Weather History Graph

Daily Weather History Graph

Search for Another Location

Airport or City:

Trip Planner

Search our weather history database for the weather conditions in past years. The results will help you decide how hot, cold, wet, or windy it might be!

Date:

Astronomy

Jan. 20, 2013 Rise Set
Actual Time 8:28 AM CET 5:07 PM CET
Civil Twilight 7:51 AM CET 5:45 PM CET
Nautical Twilight 7:10 AM CET 6:25 PM CET
Astronomical Twilight 6:31 AM CET 7:05 PM CET
Moon 12:02 PM CET (1/20) 2:40 AM CET (1/20)
Length of Visible Light 9h 53m
Length of Day
8h 39m
Waxing Gibbous, 64% of the Moon is Illuminated
Jan 20
Waxing Gibbous
Jan 27
Full
Feb 3
Last Quarter
Feb 10
New
Feb 17
First Quarter

Hourly Weather History & Observations

Time (CET) Temp. Windchill Dew Point Humidity Pressure Visibility Wind Dir Wind Speed Gust Speed Precip Events Conditions
12:25 AM 24.8 °F 11.1 °F 19.4 °F 80% 29.42 in 6.2 mi ENE 18.4 mph - N/A   Overcast
12:55 AM 24.8 °F 11.9 °F 17.6 °F 74% 29.42 in 6.2 mi ENE 16.1 mph - N/A   Overcast
1:00 AM 24 °F - 18 °F 70% 29.44 in 8 mi ENE 17.9 mph - -   Partly Cloudy
1:25 AM 24.8 °F 11.5 °F 17.6 °F 74% 29.39 in 6.2 mi ENE 17.3 mph - N/A   Overcast
1:55 AM 23.0 °F 9.6 °F 17.6 °F 80% 29.39 in 6.2 mi ENE 16.1 mph - N/A   Overcast
2:25 AM 23.0 °F 10.1 °F 17.6 °F 80% 29.39 in 6.2 mi ENE 15.0 mph - N/A   Overcast
2:55 AM 23.0 °F 10.6 °F 17.6 °F 80% 29.39 in 5.6 mi NE 13.8 mph - N/A   Overcast
3:25 AM 21.2 °F 6.4 °F 17.6 °F 86% 29.39 in 5.6 mi NE 18.4 mph - N/A   Overcast
3:55 AM 21.2 °F 6.8 °F 17.6 °F 86% 29.36 in 5.6 mi NE 17.3 mph - N/A   Overcast
4:00 AM 22 °F - 17 °F 73% 29.41 in 6 mi NE 17.9 mph - -   Light Haze
4:25 AM 21.2 °F 6.4 °F 17.6 °F 86% 29.36 in 5.6 mi NE 18.4 mph - N/A   Overcast
4:55 AM 21.2 °F 6.4 °F 17.6 °F 86% 29.36 in 5.0 mi ENE 18.4 mph - N/A   Unknown
5:25 AM 21.2 °F 7.8 °F 17.6 °F 86% 29.36 in 5.0 mi ENE 15.0 mph - N/A   Unknown
5:55 AM 21.2 °F 6.4 °F 17.6 °F 86% 29.36 in 5.6 mi ENE 18.4 mph - N/A   Unknown
6:25 AM 21.2 °F 6.8 °F 17.6 °F 86% 29.36 in 5.6 mi ENE 17.3 mph - N/A   Partly Cloudy
6:55 AM 21.2 °F 6.4 °F 17.6 °F 86% 29.36 in 5.6 mi ENE 18.4 mph - N/A   Partly Cloudy
7:00 AM 22 °F - 17 °F 74% 29.39 in 6 mi ENE 15.7 mph - -   Light Haze
7:25 AM 21.2 °F 6.4 °F 17.6 °F 86% 29.36 in 5.6 mi ENE 18.4 mph - N/A   Mostly Cloudy
7:55 AM 21.2 °F 6.4 °F 19.4 °F 93% 29.36 in - NE 18.4 mph - N/A Snow Light Snow
8:25 AM 21.2 °F 6.8 °F 19.4 °F 93% 29.33 in - NE 17.3 mph - N/A Snow Light Snow
8:55 AM 21.2 °F 6.4 °F 19.4 °F 93% 29.33 in 1.2 mi ENE 18.4 mph - N/A Snow Light Snow
9:25 AM 21.2 °F 6.8 °F 19.4 °F 93% 29.33 in 1.3 mi ENE 17.3 mph - N/A Snow Light Snow
9:55 AM 21.2 °F 6.4 °F 19.4 °F 93% 29.33 in 1.4 mi ENE 18.4 mph - N/A Snow Light Snow
10:00 AM 22 °F - 20 °F 87% 29.36 in 2 mi ENE 17.9 mph - - Snow Light Snow
10:25 AM 23.0 °F 8.0 °F 19.4 °F 86% 29.33 in - ENE 20.7 mph - N/A Snow Light Snow
10:55 AM 23.0 °F 8.3 °F 19.4 °F 86% 29.30 in - ENE 19.6 mph - N/A Snow Light Snow
11:25 AM 23.0 °F 9.2 °F 21.2 °F 93% 29.33 in 3.1 mi ENE 17.3 mph - N/A Rain Light Freezing Rain
11:55 AM 23.0 °F 10.1 °F 21.2 °F 93% 29.33 in - ENE 15.0 mph - N/A Snow Light Snow
12:25 PM 24.8 °F 12.9 °F 23.0 °F 93% 29.30 in 1.0 mi ENE 13.8 mph - N/A Snow Light Snow Grains
12:55 PM 24.8 °F 13.4 °F 23.0 °F 93% 29.30 in 1.6 mi ENE 12.7 mph - N/A Snow Light Snow
1:00 PM 25 °F - 24 °F 92% 29.32 in 2 mi ENE 13.4 mph - - Rain Light Freezing Rain
1:25 PM 26.6 °F 14.7 °F 24.8 °F 93% 29.27 in - ENE 15.0 mph - N/A   Light Freezing Rain
1:55 PM 26.6 °F 15.2 °F 24.8 °F 93% 29.27 in 2.8 mi East 13.8 mph - N/A   Light Freezing Drizzle
2:25 PM 26.6 °F 13.8 °F 24.8 °F 93% 29.24 in - East 17.3 mph - N/A   Light Freezing Drizzle
2:55 PM 26.6 °F 14.7 °F 24.8 °F 93% 29.24 in 3.7 mi East 15.0 mph - N/A   Overcast
3:25 PM 26.6 °F 14.7 °F 24.8 °F 93% 29.27 in 5.0 mi East 15.0 mph - N/A   Overcast
3:55 PM 28.4 °F 17.5 °F 24.8 °F 86% 29.27 in 5.0 mi East 13.8 mph - N/A   Overcast
4:00 PM 28 °F - 25 °F 82% 29.29 in 5 mi East 13.4 mph - -   Mist
4:25 PM 28.4 °F 18.5 °F 24.8 °F 86% 29.27 in 4.3 mi East 11.5 mph - N/A   Light Freezing Rain
4:55 PM 28.4 °F 18.0 °F 24.8 °F 86% 29.27 in 5.0 mi East 12.7 mph - N/A   Overcast
5:25 PM 28.4 °F 19.1 °F 24.8 °F 86% 29.27 in 5.0 mi East 10.4 mph - N/A   Overcast
5:55 PM 28.4 °F 19.1 °F 24.8 °F 86% 29.27 in 5.0 mi East 10.4 mph - N/A   Overcast
6:25 PM 28.4 °F 19.7 °F 24.8 °F 86% 29.27 in 4.3 mi East 9.2 mph - N/A   Overcast
6:55 PM 28.4 °F 20.4 °F 26.6 °F 93% 29.30 in 4.3 mi East 8.1 mph - N/A   Overcast
7:00 PM 29 °F - 26 °F 83% 29.32 in 4 mi East 8.9 mph - -   Mist
7:25 PM 28.4 °F 20.4 °F 26.6 °F 93% 29.30 in 4.3 mi East 8.1 mph - N/A   Overcast
7:55 PM 30.2 °F 22.6 °F 26.6 °F 86% 29.30 in 4.3 mi East 8.1 mph - N/A   Overcast
8:25 PM 30.2 °F 23.4 °F 26.6 °F 86% 29.30 in 3.7 mi East 6.9 mph - N/A   Overcast
8:55 PM 30.2 °F 22.6 °F 26.6 °F 86% 29.33 in 3.7 mi East 8.1 mph - N/A   Overcast
9:25 PM 30.2 °F 23.4 °F 26.6 °F 86% 29.33 in 3.7 mi East 6.9 mph - N/A   Overcast
9:55 PM 30.2 °F 24.3 °F 28.4 °F 93% 29.33 in 3.7 mi East 5.8 mph - N/A   Overcast
10:00 PM 30 °F - 28 °F 86% 29.37 in 4 mi East 6.7 mph - -   Mist
10:25 PM 30.2 °F 25.4 °F 28.4 °F 93% 29.33 in 3.1 mi SE 4.6 mph - N/A   Overcast
10:55 PM 30.2 °F 24.3 °F 28.4 °F 93% 29.36 in 3.7 mi ESE 5.8 mph - N/A   Overcast
11:25 PM 33.8 °F 26.4 °F 28.4 °F 81% 29.36 in 6.2 mi South 9.2 mph - N/A   Overcast
11:55 PM 33.8 °F 25.8 °F 28.4 °F 81% 29.36 in 6.2 mi South 10.4 mph - N/A   Overcast